• în Republica Moldova
  • Lista ţărilor
  • Pe 7 zile
  • Temperatura apei
  • Hartă satelitară
  • Meteo pe hartă
  • Widget-uri
  • user-avatar
    Intrare

    Meteo pe oră la Elbasan

    Astăzi, 15 Noiembrie, Joi

    Timp Temperatura Precipitaţii Vânt Presiune Umiditate
    00:00 +10°C° 0 mm 2 m/s 740 mmHg 75%
    01:00 +10°C° 0 mm 2 m/s 740 mmHg 76%
    02:00 +10°C° 0 mm 2 m/s 740 mmHg 77%
    03:00 +9°C° 0 mm 2 m/s 739 mmHg 77%
    04:00 +9°C° 0 mm 3 m/s 739 mmHg 78%
    05:00 +9°C° 0 mm 3 m/s 739 mmHg 77%
    06:00 +8°C° 0 mm 3 m/s 739 mmHg 76%
    07:00 +8°C° 0 mm 3 m/s 740 mmHg 75%
    08:00 +10°C° 0 mm 3 m/s 740 mmHg 66%
    09:00 +12°C° 0 mm 3 m/s 740 mmHg 56%
    10:00 +14°C° 0 mm 3 m/s 740 mmHg 47%
    11:00 +16°C° 0 mm 3 m/s 739 mmHg 43%
    12:00 +17°C° 0 mm 3 m/s 739 mmHg 38%
    13:00 +18°C° 0 mm 2 m/s 739 mmHg 34%
    14:00 +17°C° 0 mm 2 m/s 738 mmHg 37%
    15:00 +16°C° 0 mm 2 m/s 738 mmHg 40%
    16:00 +15°C° 0 mm 2 m/s 738 mmHg 42%
    17:00 +14°C° 0 mm 2 m/s 738 mmHg 44%
    18:00 +12°C° 0 mm 3 m/s 739 mmHg 46%
    19:00 +11°C° 0 mm 3 m/s 739 mmHg 48%
    20:00 +10°C° 0 mm 3 m/s 739 mmHg 51%
    21:00 +9°C° 0 mm 3 m/s 739 mmHg 54%
    22:00 +9°C° 0 mm 3 m/s 739 mmHg 57%
    23:00 +8°C° 0 mm 3 m/s 739 mmHg 60%

    Mâine, 16 Noiembrie, Vineri

    Timp Temperatura Precipitaţii Vânt Presiune Umiditate
    00:00 +8°C° 0 mm 3 m/s 739 mmHg 62%
    01:00 +7°C° 0 mm 3 m/s 739 mmHg 64%
    02:00 +7°C° 0 mm 3 m/s 739 mmHg 66%
    03:00 +7°C° 0 mm 3 m/s 739 mmHg 67%
    04:00 +5°C° 0 mm 3 m/s 739 mmHg 68%
    05:00 +5°C° 0 mm 3 m/s 739 mmHg 69%
    06:00 +5°C° 0 mm 3 m/s 739 mmHg 69%
    07:00 +5°C° 0 mm 3 m/s 739 mmHg 69%
    08:00 +8°C° 0 mm 3 m/s 739 mmHg 62%
    09:00 +10°C° 0 mm 3 m/s 739 mmHg 54%
    10:00 +12°C° 0 mm 4 m/s 739 mmHg 47%
    11:00 +12°C° 0 mm 3 m/s 739 mmHg 44%
    12:00 +13°C° 0 mm 3 m/s 739 mmHg 42%
    13:00 +14°C° 0 mm 3 m/s 739 mmHg 40%
    14:00 +13°C° 0 mm 3 m/s 739 mmHg 43%
    15:00 +12°C° 0 mm 3 m/s 739 mmHg 46%
    16:00 +11°C° 0 mm 3 m/s 739 mmHg 49%
    17:00 +10°C° 0 mm 3 m/s 739 mmHg 52%
    18:00 +9°C° 0 mm 3 m/s 739 mmHg 55%
    19:00 +7°C° 0 mm 4 m/s 739 mmHg 59%
    20:00 +6°C° 0 mm 4 m/s 740 mmHg 60%
    21:00 +6°C° 0 mm 4 m/s 740 mmHg 62%
    22:00 +6°C° 0 mm 4 m/s 740 mmHg 64%
    23:00 +5°C° 0 mm 3 m/s 740 mmHg 65%

    Poimâine, 17 Noiembrie, Sâmbătă

    Timp Temperatura Precipitaţii Vânt Presiune Umiditate
    00:00 +5°C° 0 mm 3 m/s 740 mmHg 67%
    01:00 +5°C° 0 mm 3 m/s 740 mmHg 68%
    02:00 +5°C° 0 mm 3 m/s 740 mmHg 68%
    03:00 +4°C° 0 mm 3 m/s 740 mmHg 68%
    04:00 +4°C° 0 mm 4 m/s 740 mmHg 68%
    05:00 +4°C° 0 mm 4 m/s 740 mmHg 68%
    06:00 +4°C° 0 mm 4 m/s 740 mmHg 69%
    07:00 +4°C° 0 mm 4 m/s 740 mmHg 69%
    08:00 +6°C° 0 mm 4 m/s 740 mmHg 63%
    09:00 +8°C° 0 mm 4 m/s 740 mmHg 57%
    10:00 +11°C° 0 mm 4 m/s 740 mmHg 52%
    11:00 +12°C° 0 mm 4 m/s 740 mmHg 50%
    12:00 +12°C° 0 mm 4 m/s 739 mmHg 49%
    13:00 +12°C° 0 mm 4 m/s 739 mmHg 48%
    14:00 +12°C° 0 mm 4 m/s 739 mmHg 51%
    15:00 +11°C° 0 mm 4 m/s 739 mmHg 54%
    16:00 +10°C° 0 mm 3 m/s 739 mmHg 57%
    17:00 +10°C° 0.1 mm 4 m/s 739 mmHg 59%
    18:00 +8°C° 0.1 mm 4 m/s 739 mmHg 61%
    19:00 +8°C° 0.1 mm 4 m/s 739 mmHg 63%
    20:00 +7°C° 0.1 mm 4 m/s 739 mmHg 64%
    21:00 +7°C° 0.1 mm 4 m/s 739 mmHg 66%
    22:00 +7°C° 0.1 mm 4 m/s 739 mmHg 68%
    23:00 +7°C° 0.2 mm 4 m/s 739 mmHg 68%

    18 Noiembrie, Duminică

    Timp Temperatura Precipitaţii Vânt Presiune Umiditate
    00:00 +6°C° 0.2 mm 4 m/s 739 mmHg 69%
    01:00 +6°C° 0.2 mm 4 m/s 738 mmHg 69%
    02:00 +6°C° 0.7 mm 4 m/s 738 mmHg 71%
    03:00 +6°C° 0.7 mm 4 m/s 738 mmHg 72%
    04:00 +6°C° 0.7 mm 4 m/s 738 mmHg 74%
    05:00 +6°C° 0.8 mm 4 m/s 738 mmHg 74%
    06:00 +6°C° 0.8 mm 4 m/s 737 mmHg 75%
    07:00 +6°C° 0.8 mm 4 m/s 737 mmHg 76%
    08:00 +7°C° 0.7 mm 4 m/s 738 mmHg 75%
    09:00 +7°C° 0.7 mm 4 m/s 738 mmHg 74%
    10:00 +8°C° 0.7 mm 4 m/s 738 mmHg 73%
    11:00 +8°C° 0.7 mm 4 m/s 737 mmHg 73%
    12:00 +8°C° 0.7 mm 4 m/s 737 mmHg 73%
    13:00 +8°C° 0.7 mm 4 m/s 736 mmHg 73%
    14:00 +8°C° 1.2 mm 4 m/s 736 mmHg 75%
    15:00 +9°C° 1.2 mm 3 m/s 736 mmHg 77%
    16:00 +8°C° 1.2 mm 3 m/s 735 mmHg 79%
    17:00 +8°C° 1.3 mm 3 m/s 735 mmHg 81%
    18:00 +8°C° 1.3 mm 3 m/s 735 mmHg 82%
    19:00 +8°C° 1.3 mm 3 m/s 735 mmHg 83%
    20:00 +8°C° 0.7 mm 3 m/s 735 mmHg 84%
    21:00 +8°C° 0.7 mm 3 m/s 735 mmHg 84%
    22:00 +8°C° 0.7 mm 3 m/s 735 mmHg 85%
    23:00 +8°C° 1.5 mm 3 m/s 734 mmHg 86%

    19 Noiembrie, Luni

    Timp Temperatura Precipitaţii Vânt Presiune Umiditate
    00:00 +8°C° 1.5 mm 2 m/s 734 mmHg 87%
    01:00 +8°C° 1.5 mm 2 m/s 734 mmHg 88%
    02:00 +8°C° 3.2 mm 2 m/s 733 mmHg 89%
    03:00 +8°C° 3.2 mm 2 m/s 733 mmHg 90%
    04:00 +8°C° 3.2 mm 2 m/s 732 mmHg 90%
    05:00 +8°C° 1.7 mm 2 m/s 732 mmHg 90%
    06:00 +8°C° 1.7 mm 2 m/s 732 mmHg 89%
    07:00 +8°C° 1.7 mm 2 m/s 732 mmHg 89%
    08:00 +9°C° 0.4 mm 2 m/s 732 mmHg 87%
    09:00 +10°C° 0.4 mm 1 m/s 732 mmHg 86%
    10:00 +10°C° 0.4 mm 1 m/s 732 mmHg 84%
    11:00 +10°C° 0.3 mm 1 m/s 732 mmHg 83%
    12:00 +11°C° 0.3 mm 1 m/s 731 mmHg 82%
    13:00 +11°C° 0.3 mm 1 m/s 731 mmHg 81%
    14:00 +11°C° 0.1 mm 1 m/s 731 mmHg 82%
    15:00 +11°C° 0.1 mm 1 m/s 731 mmHg 84%
    16:00 +11°C° 0.1 mm 1 m/s 731 mmHg 85%
    17:00 +10°C° 0 mm 1 m/s 731 mmHg 86%
    18:00 +10°C° 0 mm 1 m/s 731 mmHg 87%
    19:00 +9°C° 0 mm 1 m/s 731 mmHg 88%
    20:00 +9°C° 0 mm 1 m/s 732 mmHg 88%
    21:00 +9°C° 0 mm 1 m/s 732 mmHg 88%
    22:00 +9°C° 0 mm 1 m/s 732 mmHg 88%
    23:00 +9°C° 0 mm 1 m/s 732 mmHg 87%

    20 Noiembrie, Marţi

    Timp Temperatura Precipitaţii Vânt Presiune Umiditate
    00:00 +8°C° 0 mm 1 m/s 732 mmHg 86%
    01:00 +8°C° 0 mm 1 m/s 732 mmHg 85%
    02:00 +8°C° 0.1 mm 1 m/s 732 mmHg 84%
    03:00 +9°C° 0.1 mm 1 m/s 732 mmHg 83%
    04:00 +9°C° 0.1 mm 1 m/s 732 mmHg 82%
    05:00 +9°C° 0.1 mm 1 m/s 732 mmHg 82%
    06:00 +9°C° 0.1 mm 1 m/s 732 mmHg 83%
    07:00 +8°C° 0.1 mm 2 m/s 733 mmHg 83%
    08:00 +10°C° 0.1 mm 1 m/s 733 mmHg 81%
    09:00 +11°C° 0.1 mm 1 m/s 733 mmHg 80%
    10:00 +11°C° 0.1 mm 1 m/s 733 mmHg 78%
    11:00 +12°C° 0.1 mm 1 m/s 732 mmHg 78%
    12:00 +12°C° 0.1 mm 2 m/s 732 mmHg 77%
    13:00 +13°C° 0.1 mm 2 m/s 732 mmHg 77%
    14:00 +12°C° 0.5 mm 1 m/s 732 mmHg 80%
    15:00 +12°C° 0.5 mm 1 m/s 732 mmHg 84%
    16:00 +11°C° 0.5 mm 1 m/s 731 mmHg 88%
    17:00 +11°C° 0.8 mm 1 m/s 731 mmHg 88%
    18:00 +10°C° 0.8 mm 2 m/s 731 mmHg 89%
    19:00 +9°C° 0.8 mm 2 m/s 731 mmHg 89%
    20:00 +9°C° 0.8 mm 3 m/s 731 mmHg 88%
    21:00 +9°C° 0.8 mm 3 m/s 730 mmHg 87%
    22:00 +9°C° 0.8 mm 3 m/s 730 mmHg 86%
    23:00 +9°C° 0.8 mm 3 m/s 729 mmHg 86%
    Arată mai mult